Powrót do katalogu

COSMOS 1513

AktywnyNawigacjaPO
NORAD 14546·PAYLOAD·🇷🇺 Russia

Wystrzelony Dec 8, 1983 z Plesetsk Cosmodrome

Loading…

Następne Przeloty (najbliższe 24 godziny)

TLE

ŚwieżeSource: Space-Track

Epoka: Sep 14, 2026, 04:50 UTC

1 14546U 83120A   26257.20155334  .00000062  00000-0  49508-4 0  9997
2 14546  82.9426 166.5982 0038940  12.0624 139.9537 13.74472092144532

Śledź COSMOS 1513 w czasie rzeczywistym z AllMySat

Download on the App Store